User: anonymous   Login
Location: Ellerstadt
(49.4644°N, 8.2615°E)
Time: 18:55:52
(UTC+00:00)
Language:

Meteor 1-20 Rocket - Orbit

View from above orbital plane
View from above orbital plane
View from above satellite
View from above satellite

Ground track
Ground track

The orbit data is extracted from the following two-line orbital elements,

1 07575U 74099B   21333.54379674 -.00000092  00000-0 -57052-4 0  9996
2 07575  81.2438 168.1059 0050019 340.5134  19.4123 14.11100034415743
Epoch (UTC): 29 November 2021 13:03:04
Eccentricity: 0.0050019
inclination: 81.2438°
perigee height: 819 km
apogee height: 892 km
right ascension of ascending node: 168.1059°
argument of perigee: 340.5134°
revolutions per day: 14.11100034
mean anomaly at epoch: 19.4123°
orbit number at epoch: 41574

The dashed part of the orbit path shows where the satellite is in the earth's shadow,  

DLR